Weather History for Galliano, LA

Change the Weather History Date:

Tuesday, April 9, 2013

  Actual Average (KAXO) Record (KAXO)
Temperature  
Mean Temperature 76 °F -  
Max Temperature 82 °F 69 °F 82 °F (2012)
Min Temperature 70 °F 65 °F 53 °F (2014)
Cooling Degree Days 10    
Growing Degree Days 26 (Base 50)    
Moisture  
Dew Point 72 °F    
Average Humidity 88    
Maximum Humidity 94    
Minimum Humidity 78    
Precipitation  
Precipitation 0.00 in - - ()
Sea Level Pressure  
Sea Level Pressure 29.97 in    
Wind  
Wind Speed 14 mph (ESE)    
Max Wind Speed 21 mph    
Max Gust Speed 31 mph    
Visibility 7 miles    
Events      
Averages and records for this station are not official NWS values.
T = Trace of Precipitation, MM = Missing Value Source: NWS Daily Summary

Daily Weather History Graph

Daily Weather History Graph

Search for Another Location

Airport:

Trip Planner

Search our weather history database for the weather conditions in past years. The results will help you decide how hot, cold, wet, or windy it might be!

Date:

Astronomy

Apr. 09, 2013 Rise Set
Actual Time 6:41 AM CDT 7:24 PM CDT
Civil Twilight 6:16 AM CDT 7:48 PM CDT
Nautical Twilight 5:48 AM CDT 8:17 PM CDT
Astronomical Twilight 5:19 AM CDT 8:46 PM CDT
Moon 6:01 AM CDT (4/9) 6:59 PM CDT (4/9)
Length of Visible Light 13h 31m
Length of Day
12h 43m
Waning Crescent, 1% of the Moon is Illuminated
Apr 9
Waning Crescent
Apr 10
New
Apr 18
First Quarter
Apr 25
Full
May 2
Last Quarter

Hourly Weather History & Observations

Time (CDT) Temp. Heat Index Dew Point Humidity Pressure Visibility Wind Dir Wind Speed Gust Speed Precip Events Conditions
12:15 AM 73.0 °F - 70.7 °F 92% 29.95 in 7.0 mi East 13.8 mph 24.2 mph N/A   Unknown
12:35 AM 72.7 °F - 70.7 °F 93% 29.94 in 7.0 mi ESE 15.0 mph 21.9 mph N/A   Unknown
12:55 AM 72.5 °F - 70.3 °F 93% 29.94 in 7.0 mi ESE 13.8 mph 19.6 mph N/A   Unknown
1:15 AM 71.2 °F - 69.3 °F 93% 29.94 in 7.0 mi ESE 12.7 mph 23.0 mph N/A   Unknown
1:35 AM 71.2 °F - 69.3 °F 93% 29.94 in 7.0 mi ESE 13.8 mph 20.7 mph N/A   Unknown
1:55 AM 72.5 °F - 70.2 °F 92% 29.93 in 7.0 mi ESE 12.7 mph 18.4 mph N/A   Unknown
2:15 AM 72.7 °F - 70.5 °F 93% 29.91 in 7.0 mi ESE 17.3 mph 20.7 mph N/A   Unknown
2:35 AM 72.5 °F - 70.3 °F 93% 29.91 in 7.0 mi ESE 15.0 mph 23.0 mph N/A   Unknown
2:55 AM 72.5 °F - 70.3 °F 93% 29.91 in 7.0 mi ESE 12.7 mph 21.9 mph N/A   Unknown
3:15 AM 72.9 °F - 70.7 °F 93% 29.90 in 7.0 mi ESE 15.0 mph 19.6 mph N/A   Unknown
3:35 AM 73.4 °F - 70.7 °F 91% 29.90 in 7.0 mi ESE 15.0 mph 23.0 mph N/A   Unknown
3:55 AM 73.4 °F - 70.9 °F 92% 29.90 in 7.0 mi ESE 11.5 mph 19.6 mph N/A   Unknown
4:15 AM 73.4 °F - 70.9 °F 92% 29.91 in 7.0 mi ESE 12.7 mph 21.9 mph N/A   Unknown
4:35 AM 73.4 °F - 70.9 °F 92% 29.91 in 7.0 mi ESE 11.5 mph 16.1 mph N/A   Unknown
4:55 AM 73.8 °F - 71.2 °F 92% 29.92 in 7.0 mi ESE 15.0 mph 19.6 mph N/A   Unknown
5:15 AM 73.4 °F - 71.1 °F 92% 29.92 in 7.0 mi ESE 12.7 mph 18.4 mph N/A   Unknown
5:35 AM 73.0 °F - 70.9 °F 93% 29.94 in 7.0 mi ESE 10.4 mph - N/A   Unknown
5:55 AM 72.9 °F - 70.7 °F 93% 29.94 in 7.0 mi ESE 9.2 mph 16.1 mph N/A   Unknown
6:15 AM 72.9 °F - 70.7 °F 93% 29.94 in 7.0 mi ESE 10.4 mph - N/A   Unknown
6:35 AM 72.7 °F - 70.7 °F 93% 29.94 in 7.0 mi ESE 11.5 mph - N/A   Unknown
6:55 AM 71.8 °F - 70.0 °F 94% 29.95 in 7.0 mi ESE 9.2 mph - N/A   Unknown
7:15 AM 70.7 °F - 68.9 °F 94% 29.96 in 5.0 mi ESE 10.4 mph - N/A   Mist
7:35 AM 71.2 °F - 69.3 °F 93% 29.96 in 5.0 mi ESE 12.7 mph 18.4 mph N/A   Mist
7:55 AM 72.3 °F - 70.0 °F 92% 29.97 in 5.0 mi ESE 11.5 mph 16.1 mph N/A   Mist
8:15 AM 73.4 °F - 70.9 °F 92% 29.98 in 5.0 mi ESE 10.4 mph 18.4 mph N/A   Mist
8:35 AM 73.8 °F - 71.2 °F 92% 29.98 in 5.0 mi ESE 11.5 mph - N/A   Mist
8:55 AM 74.5 °F - 71.6 °F 91% 29.99 in 5.0 mi ESE 11.5 mph 17.3 mph N/A   Mist
9:15 AM 76.1 °F - 72.5 °F 89% 29.98 in 7.0 mi ESE 11.5 mph 23.0 mph N/A   Unknown
9:35 AM 76.3 °F - 72.5 °F 88% 29.99 in 7.0 mi East 12.7 mph 18.4 mph N/A   Unknown
9:55 AM 77.0 °F - 72.5 °F 86% 29.99 in 7.0 mi ESE 19.6 mph 24.2 mph N/A   Unknown
10:15 AM 77.2 °F - 72.5 °F 85% 30.00 in 7.0 mi ESE 16.1 mph 23.0 mph N/A   Unknown
10:35 AM 78.8 °F - 73.0 °F 82% 30.00 in 7.0 mi ESE 16.1 mph 25.3 mph N/A   Unknown
10:55 AM 79.0 °F - 73.0 °F 82% 30.01 in 7.0 mi ESE 17.3 mph 26.5 mph N/A   Unknown
11:15 AM 79.3 °F - 73.2 °F 81% 30.01 in 7.0 mi ESE 15.0 mph 21.9 mph N/A   Unknown
11:35 AM 79.7 °F - 73.4 °F 81% 30.02 in 7.0 mi ESE 17.3 mph 24.2 mph N/A   Unknown
11:55 AM 80.1 °F 84.4 °F 73.4 °F 80% 30.02 in 7.0 mi ESE 16.1 mph 26.5 mph N/A   Unknown
12:15 PM 80.2 °F 84.9 °F 73.8 °F 81% 30.01 in 7.0 mi SE 18.4 mph 25.3 mph N/A   Unknown
12:35 PM 80.6 °F 85.5 °F 73.8 °F 80% 30.01 in 7.0 mi ESE 17.3 mph 25.3 mph N/A   Unknown
12:55 PM 81.3 °F 86.8 °F 73.8 °F 78% 30.00 in 7.0 mi SE 18.4 mph 28.8 mph N/A   Unknown
1:15 PM 81.9 °F 88.0 °F 74.5 °F 78% 29.99 in 10.0 mi ESE 17.3 mph 31.1 mph N/A   Unknown
1:35 PM 81.3 °F 86.8 °F 73.8 °F 78% 29.99 in 7.0 mi ESE 18.4 mph 26.5 mph N/A   Unknown
1:55 PM 81.0 °F 86.2 °F 73.8 °F 79% 29.98 in 7.0 mi ESE 16.1 mph 25.3 mph N/A   Unknown
2:15 PM 80.8 °F 85.9 °F 73.9 °F 80% 29.98 in 7.0 mi ESE 20.7 mph 29.9 mph N/A   Unknown
2:35 PM 80.6 °F 85.5 °F 73.8 °F 80% 29.98 in 7.0 mi ESE 19.6 mph 24.2 mph N/A   Unknown
2:55 PM 80.4 °F 85.3 °F 73.9 °F 81% 29.97 in 7.0 mi ESE 16.1 mph 25.3 mph N/A   Unknown
3:15 PM 79.9 °F - 73.8 °F 81% 29.97 in 7.0 mi ESE 18.4 mph 25.3 mph N/A   Unknown
3:35 PM 79.7 °F - 73.6 °F 81% 29.97 in 7.0 mi ESE 16.1 mph 24.2 mph N/A   Unknown
3:55 PM 79.7 °F - 73.8 °F 82% 29.97 in 7.0 mi ESE 15.0 mph 24.2 mph N/A   Unknown
4:15 PM 79.2 °F - 73.6 °F 83% 29.96 in 7.0 mi ESE 17.3 mph 24.2 mph N/A   Unknown
4:35 PM 79.5 °F - 73.6 °F 82% 29.96 in 7.0 mi ESE 17.3 mph 25.3 mph N/A   Unknown
4:55 PM 79.0 °F - 73.4 °F 83% 29.96 in 7.0 mi ESE 17.3 mph 23.0 mph N/A   Unknown
5:15 PM 79.2 °F - 73.8 °F 83% 29.96 in 7.0 mi ESE 15.0 mph 24.2 mph N/A   Unknown
5:35 PM 78.8 °F - 73.4 °F 83% 29.97 in 7.0 mi ESE 15.0 mph 24.2 mph N/A   Unknown
5:55 PM 78.4 °F - 73.4 °F 84% 29.98 in 7.0 mi ESE 16.1 mph 20.7 mph N/A   Unknown
6:15 PM 77.7 °F - 73.4 °F 86% 29.98 in 7.0 mi ESE 15.0 mph 21.9 mph N/A   Unknown
6:35 PM 77.2 °F - 73.2 °F 88% 29.98 in 7.0 mi ESE 15.0 mph 25.3 mph N/A   Unknown
6:55 PM 76.6 °F - 73.0 °F 89% 29.98 in 7.0 mi ESE 13.8 mph - N/A   Unknown
7:15 PM 76.1 °F - 72.9 °F 90% 29.98 in 7.0 mi East 11.5 mph - N/A   Unknown
7:35 PM 75.7 °F - 72.9 °F 91% 29.97 in 7.0 mi East 13.8 mph 20.7 mph N/A   Unknown
7:55 PM 75.4 °F - 72.5 °F 91% 29.97 in 7.0 mi East 16.1 mph 24.2 mph N/A   Unknown
8:15 PM 75.4 °F - 72.7 °F 91% 29.97 in 7.0 mi East 16.1 mph 23.0 mph N/A   Unknown
8:35 PM 75.2 °F - 72.5 °F 91% 29.97 in 7.0 mi East 15.0 mph 21.9 mph N/A   Unknown
8:55 PM 75.2 °F - 72.5 °F 91% 29.98 in 7.0 mi East 13.8 mph 21.9 mph N/A   Unknown
9:15 PM 74.8 °F - 72.5 °F 92% 29.98 in 7.0 mi East 13.8 mph 25.3 mph N/A   Unknown
9:55 PM 74.8 °F - 72.1 °F 91% 30.00 in 7.0 mi ESE 13.8 mph 20.7 mph N/A   Unknown
10:15 PM 74.8 °F - 72.1 °F 91% 29.99 in 7.0 mi East 16.1 mph 23.0 mph N/A   Unknown
10:35 PM 74.7 °F - 72.0 °F 91% 29.99 in 7.0 mi ESE 15.0 mph - N/A   Unknown
10:55 PM 74.7 °F - 72.0 °F 91% 29.99 in 10.0 mi ESE 13.8 mph 21.9 mph N/A   Unknown
11:15 PM 74.3 °F - 71.6 °F 91% 29.98 in 10.0 mi ESE 19.6 mph 26.5 mph N/A   Unknown
11:35 PM 74.3 °F - 71.6 °F 91% 29.98 in 7.0 mi ESE 16.1 mph 21.9 mph N/A   Unknown
11:55 PM 74.1 °F - 71.6 °F 92% 29.97 in 7.0 mi ESE 19.6 mph 24.2 mph N/A   Unknown